Las Cruces, NM

11:36 PM MDT on July 21, 2017 (GMT -0600)
Las Cruces International

Weather History for KLRU - January, 2013

Change the Weather History Date:

Wednesday, January 9, 2013

  Actual Average Record
Temperature  
Mean Temperature 46 °F -  
Max Temperature 58 °F 53 °F 68 °F (2002)
Min Temperature 33 °F 31 °F 26 °F (2016)
Degree Days  
Heating Degree Days 20    
Moisture  
Dew Point 17 °F    
Average Humidity 34    
Maximum Humidity 51    
Minimum Humidity 20    
Precipitation  
Precipitation 0.00 in - - ()
Sea Level Pressure  
Sea Level Pressure 30.18 in    
Wind  
Wind Speed 14 mph (North)    
Max Wind Speed 22 mph    
Max Gust Speed 30 mph    
Visibility 10 miles    
Events      
Averages and records for this station are not official NWS values.
T = Trace of Precipitation, MM = Missing Value Source: NWS Daily Summary

Daily Weather History Graph

Daily Weather History Graph

Search for Another Location

Airport or City:

Trip Planner

Search our weather history database for the weather conditions in past years. The results will help you decide how hot, cold, wet, or windy it might be!

Date:

Astronomy

Jan. 09, 2013 Rise Set
Actual Time 7:09 AM MST 5:20 PM MST
Civil Twilight 6:42 AM MST 5:47 PM MST
Nautical Twilight 6:12 AM MST 6:17 PM MST
Astronomical Twilight 5:43 AM MST 6:47 PM MST
Moon 4:51 AM MST (1/9) 3:25 PM MST (1/9)
Length of Visible Light 11h 04m
Length of Day
10h 10m
Waning Crescent, 6% of the Moon is Illuminated
Jan 9
Waning Crescent
Jan 11
New
Jan 18
First Quarter
Jan 26
Full
Feb 3
Last Quarter

Hourly Weather History & Observations

Time (MST) Temp. Windchill Dew Point Humidity Pressure Visibility Wind Dir Wind Speed Gust Speed Precip Events Conditions
12:15 AM 42.6 °F 34.6 °F 12.7 °F 30% 30.07 in 10.0 mi NNW 17.3 mph 28.8 mph N/A   Clear
12:35 AM 41.0 °F 32.2 °F 13.1 °F 32% 30.08 in 10.0 mi North 18.4 mph 24.2 mph N/A   Clear
12:55 AM 41.2 °F 32.1 °F 12.9 °F 32% 30.10 in 10.0 mi North 19.6 mph 25.3 mph N/A   Clear
1:15 AM 41.4 °F 34.3 °F 12.9 °F 31% 30.12 in 10.0 mi North 12.7 mph - N/A   Clear
1:35 AM 40.3 °F 36.3 °F 12.9 °F 33% 30.13 in 10.0 mi South 5.8 mph - N/A   Clear
1:55 AM 40.1 °F 34.7 °F 12.9 °F 33% 30.13 in 10.0 mi North 8.1 mph - N/A   Clear
2:15 AM 39.4 °F 36.1 °F 13.1 °F 34% 30.16 in 10.0 mi East 4.6 mph - N/A   Clear
2:35 AM 37.6 °F 29.6 °F 13.6 °F 38% 30.16 in 10.0 mi North 12.7 mph - N/A   Clear
2:55 AM 37.9 °F 27.9 °F 13.5 °F 37% 30.15 in 10.0 mi NNW 19.6 mph 25.3 mph N/A   Clear
3:15 AM 38.5 °F 28.1 °F 13.1 °F 35% 30.15 in 10.0 mi NNW 21.9 mph 29.9 mph N/A   Clear
3:35 AM 38.3 °F 28.4 °F 13.3 °F 36% 30.16 in 10.0 mi NNW 19.6 mph 26.5 mph N/A   Clear
3:55 AM 37.9 °F 27.6 °F 13.6 °F 37% 30.16 in 10.0 mi North 20.7 mph 25.3 mph N/A   Clear
4:15 AM 37.9 °F 27.9 °F 13.8 °F 37% 30.16 in 10.0 mi NNW 19.6 mph - N/A   Clear
4:35 AM 39.6 °F 29.5 °F 14.0 °F 35% 30.16 in 10.0 mi NNW 21.9 mph 27.6 mph N/A   Clear
4:55 AM 39.9 °F 30.5 °F 14.0 °F 35% 30.17 in 10.0 mi NNW 19.6 mph 26.5 mph N/A   Clear
5:15 AM 39.2 °F 29.3 °F 14.4 °F 36% 30.18 in 10.0 mi North 20.7 mph 26.5 mph N/A   Clear
5:35 AM 38.8 °F 28.8 °F 14.4 °F 37% 30.18 in 10.0 mi North 20.7 mph 25.3 mph N/A   Clear
5:55 AM 38.5 °F 28.3 °F 14.5 °F 38% 30.21 in 10.0 mi NNW 20.7 mph 25.3 mph N/A   Clear
6:15 AM 37.9 °F 29.2 °F 14.9 °F 39% 30.21 in 10.0 mi North 15.0 mph 24.2 mph N/A   Clear
6:35 AM 37.0 °F 28.5 °F 15.3 °F 41% 30.24 in 10.0 mi North 13.8 mph - N/A   Clear
6:55 AM 38.5 °F 29.6 °F 14.7 °F 38% 30.24 in 10.0 mi North 16.1 mph 19.6 mph N/A   Clear
7:15 AM 38.1 °F 30.2 °F 15.1 °F 39% 30.25 in 10.0 mi North 12.7 mph - N/A   Clear
7:35 AM 36.1 °F 30.6 °F 16.0 °F 44% 30.27 in 10.0 mi East 6.9 mph 17.3 mph N/A   Clear
7:55 AM 33.1 °F 26.1 °F 16.9 °F 51% 30.28 in 10.0 mi NNE 8.1 mph - N/A   Clear
8:15 AM 36.1 °F 29.3 °F 17.1 °F 46% 30.28 in 10.0 mi North 9.2 mph - N/A   Clear
8:35 AM 38.8 °F 36.5 °F 17.6 °F 42% 30.29 in 10.0 mi North 3.5 mph - N/A   Clear
8:55 AM 43.3 °F 37.2 °F 17.1 °F 35% 30.30 in 10.0 mi North 11.5 mph - N/A   Clear
9:15 AM 43.2 °F 37.0 °F 17.6 °F 36% 30.30 in 10.0 mi NNW 11.5 mph - N/A   Clear
9:35 AM 44.1 °F 38.6 °F 17.2 °F 34% 30.30 in 10.0 mi NNW 10.4 mph - N/A   Clear
9:55 AM 45.0 °F 40.1 °F 17.6 °F 33% 30.30 in 10.0 mi NW 9.2 mph - N/A   Clear
10:15 AM 48.4 °F - 18.0 °F 30% 30.29 in 10.0 mi North 13.8 mph 17.3 mph N/A   Clear
10:35 AM 49.1 °F - 18.1 °F 29% 30.28 in 10.0 mi North 16.1 mph - N/A   Clear
10:55 AM 50.5 °F - 18.3 °F 28% 30.27 in 10.0 mi North 17.3 mph 23.0 mph N/A   Clear
11:15 AM 50.7 °F - 17.4 °F 27% 30.25 in 10.0 mi NNW 17.3 mph 23.0 mph N/A   Clear
11:35 AM 52.2 °F - 17.8 °F 26% 30.24 in 10.0 mi North 15.0 mph 18.4 mph N/A   Clear
11:55 AM 53.1 °F - 17.2 °F 24% 30.24 in 10.0 mi North 15.0 mph 19.6 mph N/A   Clear
12:15 PM 53.6 °F - 16.9 °F 24% 30.22 in 10.0 mi North 16.1 mph 19.6 mph N/A   Clear
12:35 PM 54.5 °F - 16.7 °F 23% 30.20 in 10.0 mi North 13.8 mph 21.9 mph N/A   Clear
12:55 PM 55.6 °F - 16.9 °F 22% 30.19 in 10.0 mi North 13.8 mph 19.6 mph N/A   Clear
1:15 PM 56.5 °F - 17.4 °F 22% 30.19 in 10.0 mi North 13.8 mph 18.4 mph N/A   Clear
1:35 PM 57.2 °F - 18.0 °F 22% 30.17 in 10.0 mi North 12.7 mph 18.4 mph N/A   Clear
1:55 PM 57.6 °F - 18.9 °F 22% 30.16 in 10.0 mi NNW 12.7 mph 19.6 mph N/A   Clear
2:15 PM 57.7 °F - 20.8 °F 24% 30.16 in 10.0 mi NNE 12.7 mph 20.7 mph N/A   Clear
2:35 PM 58.1 °F - 19.6 °F 22% 30.15 in 10.0 mi NNE 6.9 mph 17.3 mph N/A   Clear
2:55 PM 58.1 °F - 23.0 °F 26% 30.15 in 10.0 mi NE 6.9 mph 10.4 mph N/A   Clear
3:15 PM 58.1 °F - 22.8 °F 26% 30.15 in 10.0 mi NNE 15.0 mph - N/A   Clear
3:35 PM 57.7 °F - 25.5 °F 29% 30.14 in 10.0 mi NNE 10.4 mph - N/A   Clear
3:55 PM 57.6 °F - 21.4 °F 25% 30.14 in 10.0 mi NNE 12.7 mph - N/A   Clear
4:15 PM 57.2 °F - 15.6 °F 20% 30.14 in 10.0 mi NNE 10.4 mph - N/A   Clear
4:35 PM 56.3 °F - 16.3 °F 21% 30.14 in 10.0 mi NNE 8.1 mph - N/A   Clear
4:55 PM 54.9 °F - 16.5 °F 22% 30.15 in 10.0 mi NE 6.9 mph - N/A   Clear
5:15 PM 52.5 °F - 17.6 °F 25% 30.15 in 10.0 mi NNE 5.8 mph - N/A   Clear
5:35 PM 48.9 °F - 18.1 °F 30% 30.15 in 10.0 mi NNE 8.1 mph - N/A   Clear
5:55 PM 47.3 °F - 18.5 °F 32% 30.15 in 10.0 mi NNE 8.1 mph - N/A   Clear
6:55 PM 45.1 °F 41.4 °F 19.4 °F 36% 30.15 in 10.0 mi North 6.9 mph - N/A   Clear
7:15 PM 41.5 °F 36.4 °F 20.5 °F 43% 30.15 in 10.0 mi NW 8.1 mph - N/A   Clear
7:35 PM 42.1 °F 37.7 °F 20.3 °F 42% 30.15 in 10.0 mi NNW 6.9 mph - N/A   Clear
7:55 PM 42.4 °F 37.0 °F 19.4 °F 40% 30.15 in 10.0 mi North 9.2 mph - N/A   Clear
8:15 PM 41.4 °F 35.7 °F 19.2 °F 41% 30.15 in 10.0 mi NNW 9.2 mph - N/A   Clear
8:35 PM 40.6 °F 35.4 °F 19.2 °F 42% 30.15 in 10.0 mi NW 8.1 mph - N/A   Clear
8:55 PM 40.5 °F 35.8 °F 18.5 °F 41% 30.15 in 10.0 mi WNW 6.9 mph - N/A   Clear
9:15 PM 37.9 °F 32.1 °F 18.9 °F 46% 30.15 in 10.0 mi WNW 8.1 mph - N/A   Clear
9:35 PM 38.1 °F 32.9 °F 18.3 °F 45% 30.15 in 10.0 mi NNW 6.9 mph - N/A   Clear
9:55 PM 38.7 °F - 17.8 °F 43% 30.15 in 10.0 mi Calm Calm - N/A   Clear
10:15 PM 40.3 °F 35.5 °F 16.9 °F 39% 30.13 in 10.0 mi NW 6.9 mph - N/A   Clear
10:35 PM 39.2 °F 33.0 °F 17.4 °F 41% 30.14 in 10.0 mi NW 9.2 mph - N/A   Clear
10:55 PM 39.6 °F 32.5 °F 16.9 °F 40% 30.13 in 10.0 mi NNW 11.5 mph - N/A   Clear
11:15 PM 40.5 °F 34.6 °F 16.2 °F 37% 30.13 in 10.0 mi NW 9.2 mph - N/A   Clear
11:35 PM 38.3 °F 32.5 °F 17.4 °F 43% 30.12 in 10.0 mi NW 8.1 mph - N/A   Clear
11:55 PM 35.8 °F 30.1 °F 17.4 °F 47% 30.12 in 10.0 mi NNW 6.9 mph - N/A   Clear